Simultaneous Nadir Overpasses (SNOs) Predictions

Prediction of SNOs between AQUA and NOAA-19 Satellite Orbit:

Table of predicted SNOs for the next 14.0 days since TLE Epoch: 8/28/2021
Index Date (AQUA) Time (AQUA) Lat,Lon (AQUA) SZA (AQUA ) Date (NOAA-19) Time (NOAA-19) Lat,Lon (NOAA-19) SZA (NOAA-19 ) Distance(km) Time Diff (sec)
1 08/29/2021 05:57:37 78.54, 69.38 70.05 08/29/2021 05:57:07 78.55, 69.33 70.07 1.44 30
2 08/29/2021 06:47:04 -78.58,-123.16 109.89 08/29/2021 06:48:08 -78.57,-123.25 109.91 1.89 64
3 08/31/2021 11:31:21 -78.52, 166.06 109.20 08/31/2021 11:30:16 -78.53, 166.00 109.16 1.76 65
4 08/31/2021 12:20:49 78.57, -26.56 70.88 08/31/2021 12:21:14 78.57, -26.49 70.87 1.46 25
5 09/02/2021 17:54:33 -78.55, 70.12 108.35 09/02/2021 17:54:23 -78.53, 70.04 108.36 2.98 10
6 09/02/2021 18:44:08 78.89,-124.13 72.12 09/02/2021 18:45:11 78.92,-119.84 71.83 91.75 63
7 09/04/2021 23:28:17 78.51, 166.87 72.41 09/04/2021 23:27:30 78.52, 166.79 72.44 1.91 47
8 09/05/2021 00:17:44 -78.54, -25.61 107.55 09/05/2021 00:18:29 -78.56, -25.70 107.54 3.02 45
9 09/07/2021 05:51:29 78.55, 70.87 73.29 09/07/2021 05:51:37 78.53, 70.93 73.27 2.64 8
10 09/09/2021 11:25:13 -78.53, 167.55 105.92 09/09/2021 11:24:44 -78.50, 167.51 105.94 3.76 29



Historial Predications of SNOs between AQUA and NOAA-19
